Regional Weather Roundup
Issued by NWS

Home | Current Version | Previous Version | Graphics & Text | Print | Product List | Glossary On
Versions: 1 2 3 4 5 6 7 8 9 10 11 12 13 14 15 16 17 18 19 20 21 22 23 24 25 26 27 28 29 30 31 32 33 34 35 36 37 38 39 40 41 42 43 44 45 46 47 48 49 50
907
ASUS45 KSLC 251810
RWRUT

UTAH REGIONAL WEATHER ROUNDUP
NATIONAL WEATHER SERVICE SALT LAKE CITY UT
1200 PM MDT WED APR 25 2018

UTZ001>011-023>025-251900-

NORTHERN UTAH

CITY           SKY/WX    TMP DP  RH WIND       PRES   REMARKS
BRIGHAM CITY   SUNNY     61  23  23 CALM      30.25F
HILL AFB       MOSUNNY   62  25  25 S7        30.24F
LOGAN          SUNNY     58  32  37 N6        30.24F
OGDEN          SUNNY     62  25  24 SW6       30.23F
SALT LAKE CITY MOSUNNY   65  25  22 S10       30.22F
TOOELE VALLEY  SUNNY     64  34  32 NE8       30.23F
WENDOVER       SUNNY     61  25  25 VRB6      30.23F
HEBER CITY       N/A     59  25  27 CALM      30.25F
WEST JORDAN    SUNNY     63  32  31 S12       30.24F

$$

UTZ011>015-024>027-251900-

CENTRAL/NORTHEAST UTAH

CITY           SKY/WX    TMP DP  RH WIND       PRES   REMARKS
PROVO AIRPORT  SUNNY     59  34  39 W9        30.25F
MOAB/CANYONLAN SUNNY     60  17  18 NW10      30.27F
DELTA          SUNNY     61  25  25 CALM      30.25F
PRICE          SUNNY     58  18  21 SE8       30.31F
RICHFIELD      SUNNY     61  19  20 CALM      30.26F
ROOSEVELT      SUNNY     54  23  30 E5        30.36F
VERNAL         SUNNY     53  23  31 SW10      30.34F

$$

UTZ013>016-019>022-027-251900-

SOUTHERN UTAH

CITY           SKY/WX    TMP DP  RH WIND       PRES   REMARKS
BRYCE CANYON   SUNNY     58  16  19 SE10      30.34F
CEDAR CITY     SUNNY     63  24  22 VRB6      30.24F
MILFORD        SUNNY     65  25  22 MISG      30.24F
ST GEORGE      CLEAR     75  24  15 VRB3      30.14F
HANKSVILLE     SUNNY     63  18  17 CALM      30.31F
KANAB          SUNNY     70  19  14 E10       30.27F
BLANDING         N/A     64   6  10 CALM      30.32F

$$

REGIONAL REPORTS     COLORADO/ARIZONA

CITY           SKY/WX    TMP DP  RH WIND       PRES   REMARKS
CRAIG, CO      SUNNY     51  23  33 VRB3      30.32F
GRAND JUNCTION SUNNY     57  19  22 SE9       30.28F
RIFLE, CO      SUNNY     55  24  30 VRB3      30.29F
MONTROSE, CO   SUNNY     54  18  24 VRB6      30.30F
CORTEZ, CO     SUNNY     67   5   8 SW14      30.23F
COLORADO CITY    N/A     73  21  14 SE5       30.24F
PAGE, AZ       SUNNY     68  18  14 VRB5      30.24F
GRAND CANYON   SUNNY     67  17  14 NE12      30.30F
KINGMAN, AZ    SUNNY     85  24  11 N6        30.10F
FLAGSTAFF, AZ  SUNNY     63  19  18 NE7       30.31F

$$

REGIONAL REPORTS    NEVADA/IDAHO/WYOMING

CITY           SKY/WX    TMP DP  RH WIND       PRES   REMARKS
LAS VEGAS, NV  MOSUNNY   83  22  10 NE10      30.06F
ELY, NY        SUNNY     66  22  18 VRB5      30.25F
ELKO, NV       SUNNY     62  26  25 N3        30.23F
POCATELLO, ID  MOSUNNY   61  29  29 VRB3      30.22F
BURLEY, ID     SUNNY     62  30  29 NE10      30.19F
FORT BRIDGER,    N/A     49  22  33 N3        30.34F
EVANSTON, WY   SUNNY     53  22  29 VRB7      30.30F
ROCK SPRINGS,  SUNNY     53  14  21 CALM      30.29F
KEMMERER, WY   SUNNY     48  18  29 SW6       30.32F

$$




USA.gov is the U.S. government's official web portal to all federal, state and local government web resources and services.